Flag for Poland Weather past 2 weeks in Gdansk, Poland

Now
48 °F

Clear.


Feels Like: 48 °F
Forecast: 56 / 69 °F
Wind: 2 mph from North

Location: Gdansk-Rebiechowo

Current Time: Aug 22, 2014 at 4:28:29 AM

Latest Report: Aug 22, 2014 at 4:00 AM


Visibility: 10 mi

Pressure: 29.95 "Hg

Humidity: 87%

Dew point: 45 °F

Location of GdanskLocation

Historic Weather in Gdansk — Graph

°F

Gdansk temperature yesterday

Maximum temperature yesterday: 64 °F (at 1:00 PM)
Minimum temperature yesterday: 50 °F (at 4:00 AM)
Average temperature yesterday: 57 °F

Past Weeks' High & Low Weather Summary

 TemperatureHumidityPressure
High81 °F (Aug 9, 3:00 PM)100% (Aug 7, 4:30 AM)30.04 "Hg (Aug 7, 4:30 AM)
Low50 °F (Aug 21, 4:00 AM)29% (Aug 12, 3:00 PM)29.50 "Hg (Aug 14, 6:30 AM)
Average62 °F72%29.82 "Hg
* Reported Aug 7 3:00 AM — Aug 22 3:00 AM, Gdansk, Weather by CustomWeather, © 2014

Note: Actual official high and low records may vary slightly from our data, if they occured in-between our weather recording intervals... More about our weather records

Advertising

Gdansk weather history for previous 24 hours

 ConditionsComfort  
Time TempWeatherWind HumidityBarometerVisibility
3:00 AM
Aug 22
50 °FPassing clouds.3 mph82%29.95 "HgN/A
2:30 AM50 °FClear.2 mph82%29.95 "Hg10 mi
2:00 AM50 °FPassing clouds.3 mph82%29.95 "HgN/A
1:30 AM50 °FPassing clouds.3 mph82%29.98 "HgN/A
1:00 AM50 °FPassing clouds.3 mph82%29.98 "HgN/A
12:30 AM52 °FPassing clouds.3 mph77%29.98 "HgN/A
12:00 AM52 °FPassing clouds.5 mph77%29.98 "HgN/A
11:30 PM
Aug 21
52 °FPassing clouds.3 mph82%29.95 "HgN/A
11:00 PM52 °FPassing clouds.3 mph77%29.95 "HgN/A
10:30 PM54 °FPassing clouds.5 mph77%29.95 "HgN/A
10:00 PM54 °FPassing clouds.5 mph77%29.95 "HgN/A
9:30 PM55 °FPassing clouds.5 mph72%29.95 "HgN/A
9:00 PM55 °FSunny.3 mph72%29.95 "Hg10 mi
8:30 PM55 °FPassing clouds.8 mph72%29.95 "HgN/A
8:00 PM59 °FPassing clouds.12 mph59%29.95 "HgN/A
7:30 PM61 °FPassing clouds.5 mph55%29.92 "HgN/A
7:00 PM63 °FPassing clouds.6 mph52%29.92 "HgN/A
6:30 PM63 °FPassing clouds.6 mph52%29.92 "HgN/A
6:00 PM63 °FPassing clouds.8 mph52%29.92 "HgN/A
5:30 PM64 °FPassing clouds.9 mph46%29.92 "HgN/A
5:00 PM63 °FPassing clouds.7 mph52%29.92 "HgN/A
4:30 PM63 °FPassing clouds.7 mph49%29.92 "HgN/A
4:00 PM64 °FPassing clouds.9 mph46%29.92 "HgN/A
3:30 PM64 °FPassing clouds.9 mph46%29.92 "HgN/A
3:00 PM64 °FSunny.12 mph43%29.95 "Hg10 mi
2:30 PM63 °FPassing clouds.10 mph45%29.95 "HgN/A
2:00 PM63 °FPassing clouds.10 mph45%29.95 "HgN/A
1:30 PM63 °FScattered clouds.9 mph52%29.95 "HgN/A
1:00 PM64 °FScattered clouds.10 mph49%29.95 "HgN/A
12:30 PM63 °FScattered clouds.12 mph49%29.95 "HgN/A
12:00 PM63 °FScattered clouds.10 mph52%29.92 "HgN/A
11:30 AM61 °FPassing clouds.12 mph55%29.95 "HgN/A
11:00 AM59 °FPassing clouds.10 mph59%29.95 "HgN/A
10:30 AM59 °FPassing clouds.8 mph63%29.95 "HgN/A
10:00 AM55 °FPassing clouds.7 mph77%29.95 "HgN/A
9:30 AM54 °FPassing clouds.8 mph77%29.92 "HgN/A
9:00 AM54 °FPassing clouds.9 mph82%29.92 "HgN/A
8:30 AM54 °FPassing clouds.8 mph82%29.92 "HgN/A
8:00 AM52 °FPassing clouds.7 mph82%29.92 "HgN/A
7:30 AM52 °FPassing clouds.7 mph82%29.92 "HgN/A
7:00 AM52 °FPassing clouds.6 mph82%29.92 "HgN/A
6:30 AM50 °FPassing clouds.7 mph88%29.92 "HgN/A
6:00 AM50 °FPassing clouds.6 mph88%29.92 "HgN/A
5:30 AM50 °FPassing clouds.8 mph88%29.92 "HgN/A
5:00 AM50 °FClear.7 mph82%29.92 "Hg10 mi
4:30 AM50 °FPassing clouds.5 mph82%29.92 "HgN/A
4:00 AM50 °FPassing clouds.6 mph82%29.92 "HgN/A
Weather by CustomWeather, © 2014

See weather overviewHow to use our weather pages